Location: Vesunti
(61.5000°N, 22.8333°E)
Time: 23:14:50
(UTC+00:00)

Cosmos 1802 Rocket - Pass Details

Date: 17 February 2020
Orbit: 954 x 1011 km, 82.9° (Epoch: 05 April)

Event Time Altitude Azimuth Distance (km) Brightness Sun altitude
Rises 03:35:51 0° 345° (NNW) 3,747 7.0 -18.6°
Reaches altitude 10° 03:38:23 10° 346° (NNW) 2,799 6.3 -18.3°
Maximum altitude 03:44:52 83° 75° (ENE) 1,029 4.1 -17.6°
Drops below altitude 10° 03:51:19 10° 164° (SSE) 2,791 6.5 -16.8°
Sets 03:53:51 0° 165° (SSE) 3,736 7.2 -16.5°
